LKPR Airport Information

Runway Information
Runway 04 Length 6955 ft width 197 ft
Elevation 1247 ft Threshold 0 ft Heading 37
Runway 22 Length 6955 ft Width 197 ft
Elevation 1174 ft Threshold 0 ft Heading 217
Runway 06 Length 12189 ft width 148 ft
Elevation 1202 ft Threshold 0 ft Heading 65
Runway 24 Length 12189 ft Width 148 ft
Elevation 1158 ft Threshold 0 ft Heading 245
Runway 13 Length 10663 ft width 148 ft
Elevation 1160 ft Threshold 0 ft Heading 127
Runway 31 Length 10663 ft Width 148 ft
Elevation 1232 ft Threshold 0 ft Heading 307
Airport Frequencies
Type APP Name PRAHA APP Frequency 120.525 MHZ
Type ATIS Name ATIS Frequency 122.15 MHZ
Type CLD Name CLNC DEL Frequency 120.05 MHZ
Type GND Name GND Frequency 121.9 MHZ
Type INFO Name INFO Frequency 118.3 MHZ
Type RDR Name RADAR Frequency 119 MHZ
Type TWR Name TWR Frequency 118.1 MHZ
Airport Navaids
Type VOR-DME Name Neratovice Frequency 108600 KHZ
Type VOR-DME Name Praha Frequency 112600 KHZ
Type NDB Name Ruzyne Middle Frequency 307 KHZ
Type NDB Name Ruzyne North Frequency 356 KHZ
Airport Weather Information & NOTAM
ADDS - METARS form results

(1010 UTC 18 August 2018)
 
METAR text: LKPR 181000Z 35008KT 300V020 CAVOK 24/13 Q1021 NOSIG
Conditions at: LKPR (PRAGUE/RUZYNE , CZ) observed 1000 UTC 18 August 2018
Temperature: 24.0°C (75°F)
Dewpoint: 13.0°C (55°F) [RH = 50%]
Pressure (altimeter): 30.15 inches Hg (1021.0 mb)
Winds: from the N (350 degrees) at 9 MPH (8 knots; 4.2 m/s)
Visibility: 6 or more miles (10+ km)
Ceiling: ceiling and visibility are OK
Clouds: unknown
Weather: no significant weather observed at this time

METAR text: LKPR 180930Z 33010KT CAVOK 24/13 Q1021 NOSIG
Conditions at: LKPR (PRAGUE/RUZYNE , CZ) observed 0930 UTC 18 August 2018
Temperature: 24.0°C (75°F)
Dewpoint: 13.0°C (55°F) [RH = 50%]
Pressure (altimeter): 30.15 inches Hg (1021.0 mb)
Winds: from the NNW (330 degrees) at 12 MPH (10 knots; 5.2 m/s)
Visibility: 6 or more miles (10+ km)
Ceiling: ceiling and visibility are OK
Clouds: unknown
Weather: no significant weather observed at this time